Location: Unspecified
(0.0000°N, 0.0000°E)
Time: 05:45:27
(UTC+00:00)

Transit 2A - Visible Passes

Search period start: 01 August 2014 00:00
Search period end: 11 August 2014 00:00
Orbit: 603 x 960 km, 66.7° (Epoch: 31 July)

Date Brightness Start Highest point End Pass type
(mag) Time Alt. Az. Time Alt. Az. Time Alt. Az.
08 Aug 7.9 20:19:44 10° SW 20:21:34 21° SW 20:21:34 21° SW visible
09 Aug 5.8 19:46:04 10° SSW 19:51:22 83° WNW 19:56:06 10° NNE visible
10 Aug 5.9 19:12:43 10° S 19:17:55 57° ESE 19:22:35 10° NNE visible
